CW7104 Weather Reports


Display with metric or nautical units.
time (UTC)temp
F
wind
direction
speed
MPH
gust
MPH
rain 1hr
in
rain 24hr
in
rain mn
in
humidity
%
barometer
mb
20260906045905 78 22 0.0 0.0 0.00 0.00 0.00 75 1011.8
20260906044905 79 22 0.0 0.0 0.00 0.00 0.00 75 1011.7
20260906044405 79 22 0.0 0.0 0.00 0.00 0.00 75 1011.7
20260906043904 79 22 0.0 0.0 0.00 0.00 0.00 75 1011.7
20260906043405 79 22 0.0 0.0 0.00 0.00 0.00 74 1011.7
20260906042905 79 22 0.0 0.0 0.00 0.00 0.00 74 1011.6
20260906042405 79 22 0.0 0.0 0.00 0.00 0.00 73 1011.5
20260906041905 79 22 0.0 0.0 0.00 0.00 0.00 74 1011.5
20260906041405 79 22 0.0 0.0 0.00 0.00 0.00 74 1011.5
20260906040404 79 22 0.0 0.0 0.00 0.00 0.00 73 1011.5
20260906035905 80 22 0.0 0.0 0.00 0.00 0.00 73 1011.4
20260906035405 80 22 0.0 0.0 0.00 0.00 0.00 73 1011.4
20260906034405 80 22 0.0 0.0 0.00 0.00 0.00 72 1011.4
20260906033905 80 22 0.0 0.0 0.00 0.00 0.00 72 1011.3
20260906032905 80 22 0.0 0.0 0.00 0.00 0.00 71 1011.2
20260906031905 80 22 0.0 0.0 0.00 0.00 0.00 71 1011.1
20260906031405 80 22 0.0 0.0 0.00 0.00 0.00 71 1011.1
20260906030905 81 22 0.0 0.0 0.00 0.00 0.00 70 1011.1
20260906030404 81 22 0.0 0.0 0.00 0.00 0.00 70 1011.1
20260906025905 81 22 0.0 0.0 0.00 0.00 0.00 69 1011.0
20260906025405 82 22 0.0 0.0 0.00 0.00 0.00 69 1011.0
20260906024904 82 270 0.0 0.0 0.00 0.00 0.00 68 1010.9
20260906023905 82 270 0.0 0.0 0.00 0.00 0.00 67 1010.7
20260906023404 82 270 0.0 0.0 0.00 0.00 0.00 67 1010.6
20260906022404 82 270 0.0 0.0 0.00 0.00 0.00 68 1010.5
20260906021905 82 270 0.0 0.0 0.00 0.00 0.00 68 1010.4
20260906020904 82 270 0.0 0.0 0.00 0.00 0.00 68 1010.5
20260906020405 83 270 0.0 0.0 0.00 0.00 0.00 68 1010.4
20260906015905 83 270 0.0 0.0 0.00 0.00 0.00 67 1010.4
20260906014904 84 270 0.0 0.0 0.00 0.00 0.00 66 1010.3
20260906014405 84 270 0.0 0.0 0.00 0.00 0.00 65 1010.2
20260906012905 85 270 0.0 0.0 0.00 0.00 0.00 63 1010.2
20260906012405 85 270 0.0 0.0 0.00 0.00 0.00 63 1010.1
20260906011905 85 270 0.0 0.0 0.00 0.00 0.00 63 1010.1
20260906011405 86 270 0.0 0.0 0.00 0.00 0.00 62 1010.1
20260906010904 86 269 0.0 0.0 0.00 0.00 0.00 60 1010.1
20260906010405 87 269 0.0 0.0 0.00 0.00 0.00 60 1010.1
20260906005905 87 270 0.0 0.0 0.00 0.00 0.00 60 1010.1
20260906005405 88 270 0.0 0.0 0.00 0.00 0.00 59 1010.0
20260906004904 88 270 0.0 0.0 0.00 0.00 0.00 58 1010.1
20260906004405 88 270 0.0 0.0 0.00 0.00 0.00 57 1010.1
20260906003905 89 270 0.0 0.0 0.00 0.00 0.00 57 1010.1
20260906003405 89 270 0.0 0.0 0.00 0.00 0.00 56 1010.2
20260906002404 89 289 0.0 0.0 0.00 0.00 0.00 56 1010.2
20260906001405 89 279 0.0 0.0 0.00 0.00 0.00 56 1010.3
20260906000904 89 290 0.0 0.0 0.00 0.00 0.00 55 1010.5
20260905235905 90 264 0.0 0.0 0.00 0.00 0.00 55 1010.6
20260905235405 90 265 0.0 0.0 0.00 0.00 0.00 54 1010.5
20260905234406 91 265 0.0 0.0 0.00 0.00 0.00 53 1010.4
20260905233905 91 259 0.0 0.0 0.00 0.00 0.00 54 1010.4
20260905233404 91 259 0.0 0.0 0.00 0.00 0.00 54 1010.3
20260905232905 91 259 0.0 0.0 0.00 0.00 0.00 54 1010.4
20260905232404 91 271 0.0 0.0 0.00 0.00 0.00 54 1010.3
20260905231904 90 333 0.0 0.0 0.00 0.00 0.00 54 1010.3
20260905231404 90 337 0.0 0.0 0.00 0.00 0.00 53 1010.2
20260905230904 90 337 0.0 0.0 0.00 0.00 0.00 53 1010.1
20260905230405 91 337 0.0 0.0 0.00 0.00 0.00 52 1010.0
20260905225904 91 337 0.0 0.0 0.00 0.00 0.00 52 1009.9
20260905225404 91 337 0.0 0.0 0.00 0.00 0.00 51 1009.9
20260905224905 92 337 0.0 0.0 0.00 0.00 0.00 50 1009.8
20260905224404 93 338 0.0 0.0 0.00 0.00 0.00 49 1009.8
20260905223905 94 338 0.0 0.0 0.00 0.00 0.00 48 1009.8
20260905223405 95 338 0.0 0.0 0.00 0.00 0.00 46 1009.8
20260905222904 96 338 0.0 0.0 0.00 0.00 0.00 45 1009.7
20260905222404 97 289 0.0 0.0 0.00 0.00 0.00 43 1009.8
20260905220904 98 299 0.0 0.0 0.00 0.00 0.00 44 1009.4
20260905220405 98 298 0.0 2.0 0.00 0.00 0.00 43 1009.6
20260905215904 97 281 0.0 3.0 0.00 0.00 0.00 43 1009.8
20260905214405 95 312 0.0 0.0 0.00 0.00 0.00 45 1009.9
20260905213905 95 312 0.0 0.0 0.00 0.00 0.00 47 1009.8
20260905213405 95 312 0.0 0.0 0.00 0.00 0.00 48 1009.9
20260905212404 94 311 0.0 0.0 0.00 0.00 0.00 48 1010.0
20260905211404 94 239 0.0 0.0 0.00 0.00 0.00 47 1010.1
20260905210904 93 239 0.0 0.0 0.00 0.00 0.00 48 1010.1
20260905210405 92 248 0.0 0.0 0.00 0.00 0.00 49 1010.2
20260905205904 90 223 0.0 0.0 0.00 0.00 0.00 50 1010.2
20260905205404 89 242 0.0 0.0 0.00 0.00 0.00 52 1010.3
20260905204905 88 241 0.0 0.0 0.00 0.00 0.00 51 1010.5
20260905204405 88 248 1.0 7.0 0.00 0.00 0.00 52 1010.6
20260905203904 88 280 1.0 6.0 0.00 0.00 0.00 52 1010.6
20260905203404 88 288 3.0 9.0 0.00 0.00 0.00 52 1011.0
20260905202404 89 271 2.0 14.0 0.00 0.00 0.00 51 1010.9
20260905201404 95 317 7.0 24.0 0.00 0.00 0.00 46 1010.8
20260905200904 100 344 1.0 12.0 0.00 0.00 0.00 40 1010.7
20260905200405 101 279 0.0 0.0 0.00 0.00 0.00 38 1010.4
20260905195404 103 234 0.0 0.0 0.00 0.00 0.00 36 1010.3
20260905194904 103 223 1.0 6.0 0.00 0.00 0.00 37 1010.3
20260905194405 102 224 2.0 6.0 0.00 0.00 0.00 38 1010.5
20260905193904 101 187 3.0 8.0 0.00 0.00 0.00 39 1010.5
20260905193404 101 278 1.0 8.0 0.00 0.00 0.00 37 1010.6
20260905192904 102 253 5.0 13.0 0.00 0.00 0.00 37 1010.7
20260905192404 102 237 0.0 0.0 0.00 0.00 0.00 37 1010.8
20260905191905 102 267 0.0 0.0 0.00 0.00 0.00 40 1010.9
20260905191404 101 184 2.0 6.0 0.00 0.00 0.00 38 1011.0
20260905190904 101 211 1.0 7.0 0.00 0.00 0.00 39 1011.1
20260905190405 100 240 1.0 5.0 0.00 0.00 0.00 40 1011.1
20260905185904 101 282 1.0 5.0 0.00 0.00 0.00 40 1011.1
20260905185404 100 269 2.0 7.0 0.00 0.00 0.00 40 1011.2
20260905184405 101 240 0.0 8.0 0.00 0.00 0.00 40 1011.3
20260905183904 101 276 2.0 10.0 0.00 0.00 0.00 40 1011.4
20260905183405 100 181 3.0 8.0 0.00 0.00 0.00 41 1011.4
20260905182904 100 199 1.0 5.0 0.00 0.00 0.00 41 1011.4
20260905182404 99 253 1.0 7.0 0.00 0.00 0.00 41 1011.5
20260905181404 100 260 3.0 8.0 0.00 0.00 0.00 40 1011.7
20260905180904 99 220 1.0 8.0 0.00 0.00 0.00 41 1011.7
20260905175404 99 314 0.0 0.0 0.00 0.00 0.00 43 1012.1
20260905174904 99 267 0.0 3.0 0.00 0.00 0.00 45 1012.0
20260905174404 98 267 0.0 6.0 0.00 0.00 0.00 45 1012.0
20260905173904 98 273 1.0 6.0 0.00 0.00 0.00 46 1012.1
20260905172904 98 334 0.0 0.0 0.00 0.00 0.00 43 1012.1
20260905172404 98 250 0.0 1.0 0.00 0.00 0.00 44 1012.2
20260905171904 98 221 0.0 8.0 0.00 0.00 0.00 43 1012.4
20260905171404 98 264 0.0 6.0 0.00 0.00 0.00 45 1012.4
20260905170904 98 274 1.0 7.0 0.00 0.00 0.00 45 1012.4
20260905170404 98 296 0.0 1.0 0.00 0.00 0.00 46 1012.5
20260905165404 98 278 1.0 5.0 0.00 0.00 0.00 45 1012.6
20260905164904 97 307 0.0 3.0 0.00 0.00 0.00 45 1012.7
20260905164403 97 251 2.0 6.0 0.00 0.00 0.00 45 1012.8
20260905163904 97 290 1.0 7.0 0.00 0.00 0.00 46 1012.8
20260905163404 97 349 1.0 9.0 0.00 0.00 0.00 48 1013.0
20260905162904 97 351 0.0 6.0 0.00 0.00 0.00 47 1013.1
20260905161904 96 269 0.0 2.0 0.00 0.00 0.00 49 1013.2
20260905161404 96 263 1.0 7.0 0.00 0.00 0.00 49 1013.2
20260905160904 96 24 2.0 7.0 0.00 0.00 0.00 51 1013.2
20260905160404 95 222 2.0 7.0 0.00 0.00 0.00 51 1013.2
20260905155904 95 341 1.0 6.0 0.00 0.00 0.00 51 1013.3
20260905155404 95 275 3.0 6.0 0.00 0.00 0.00 51 1013.3
20260905154904 94 274 2.0 7.0 0.00 0.00 0.00 52 1013.3
20260905154404 95 269 3.0 8.0 0.00 0.00 0.00 52 1013.2
20260905153904 95 259 0.0 6.0 0.00 0.00 0.00 52 1013.2
20260905152905 94 263 0.0 3.0 0.00 0.00 0.00 52 1013.2
20260905152404 94 246 0.0 2.0 0.00 0.00 0.00 54 1013.2
20260905151903 93 236 2.0 9.0 0.00 0.00 0.00 54 1013.2
20260905151404 93 230 0.0 6.0 0.00 0.00 0.00 56 1013.2
20260905150904 92 249 1.0 5.0 0.00 0.00 0.00 58 1013.2
20260905150404 91 266 2.0 5.0 0.00 0.00 0.00 57 1013.2
20260905145904 91 258 2.0 7.0 0.00 0.00 0.00 59 1013.3
20260905144404 89 262 0.0 0.0 0.00 0.00 0.00 62 1013.3
20260905143404 89 265 1.0 5.0 0.00 0.00 0.00 61 1013.4
20260905142904 88 263 0.0 0.0 0.00 0.00 0.00 63 1013.5
20260905142404 87 244 0.0 0.0 0.00 0.00 0.00 65 1013.5
20260905141904 87 242 0.0 1.0 0.00 0.00 0.00 67 1013.5
20260905141404 86 244 0.0 3.0 0.00 0.00 0.00 68 1013.6
20260905140904 85 224 0.0 0.0 0.00 0.00 0.00 71 1013.6
20260905135404 83 224 0.0 0.0 0.00 0.00 0.00 76 1013.6
20260905134904 82 223 0.0 0.0 0.00 0.00 0.00 78 1013.6
20260905134404 82 224 0.0 0.0 0.00 0.00 0.00 79 1013.6
20260905133904 81 225 0.0 0.0 0.00 0.00 0.00 80 1013.6
20260905133403 80 225 0.0 0.0 0.00 0.00 0.00 81 1013.7
20260905132904 79 225 0.0 0.0 0.00 0.00 0.00 82 1013.7
20260905132404 79 225 0.0 0.0 0.00 0.00 0.00 82 1013.7
20260905131904 78 225 0.0 0.0 0.00 0.00 0.00 82 1013.8
20260905131404 78 225 0.0 0.0 0.00 0.00 0.00 82 1013.8
20260905130903 77 225 0.0 0.0 0.00 0.00 0.00 82 1013.8
20260905130403 77 225 0.0 0.0 0.00 0.00 0.00 82 1013.7
20260905125904 76 225 0.0 0.0 0.00 0.00 0.00 82 1013.8
20260905125403 76 225 0.0 0.0 0.00 0.00 0.00 82 1013.8
20260905124904 75 225 0.0 0.0 0.00 0.00 0.00 82 1013.9
20260905124404 75 225 0.0 0.0 0.00 0.00 0.00 82 1013.8
20260905123904 75 225 0.0 0.0 0.00 0.00 0.00 82 1013.8
20260905123403 74 225 0.0 0.0 0.00 0.00 0.00 82 1013.7
20260905122404 74 225 0.0 0.0 0.00 0.00 0.00 82 1013.8
20260905121904 74 225 0.0 0.0 0.00 0.00 0.00 82 1013.8
20260905121404 74 225 0.0 0.0 0.00 0.00 0.00 82 1013.7
20260905120904 74 225 0.0 0.0 0.00 0.00 0.00 82 1013.6
20260905120404 74 225 0.0 0.0 0.00 0.00 0.00 82 1013.5
20260905115903 73 225 0.0 0.0 0.00 0.00 0.00 82 1013.5
20260905115404 73 225 0.0 0.0 0.00 0.00 0.00 81 1013.4
20260905114904 73 225 0.0 0.0 0.00 0.00 0.00 81 1013.4
20260905114403 73 225 0.0 0.0 0.00 0.00 0.00 81 1013.4
20260905113404 73 225 0.0 0.0 0.00 0.00 0.00 82 1013.3
20260905112903 73 225 0.0 0.0 0.00 0.00 0.00 82 1013.2
20260905112403 73 225 0.0 0.0 0.00 0.00 0.00 81 1013.2
20260905111404 74 225 0.0 0.0 0.00 0.00 0.00 81 1013.1
20260905110904 74 225 0.0 0.0 0.00 0.00 0.00 81 1013.0
20260905110403 74 225 0.0 0.0 0.00 0.00 0.00 81 1013.0
20260905105903 74 225 0.0 0.0 0.00 0.00 0.00 81 1013.0
20260905104903 74 225 0.0 0.0 0.00 0.00 0.00 81 1013.0
20260905103404 74 225 0.0 0.0 0.00 0.00 0.00 81 1012.9
20260905102903 74 225 0.0 0.0 0.00 0.00 0.00 81 1012.8
20260905100904 74 225 0.0 0.0 0.00 0.00 0.00 81 1012.7
20260905100404 74 225 0.0 0.0 0.00 0.00 0.00 81 1012.7
20260905095903 74 225 0.0 0.0 0.00 0.00 0.00 80 1012.7
20260905095403 74 225 0.0 0.0 0.00 0.00 0.00 80 1012.5
20260905094403 75 225 0.0 0.0 0.00 0.00 0.00 80 1012.5
20260905093403 75 225 0.0 0.0 0.00 0.00 0.00 80 1012.5
20260905092903 75 225 0.0 0.0 0.00 0.00 0.00 80 1012.5
20260905092404 75 225 0.0 0.0 0.00 0.00 0.00 80 1012.5
20260905091903 75 225 0.0 0.0 0.00 0.00 0.00 80 1012.4
20260905091404 75 225 0.0 0.0 0.00 0.00 0.00 80 1012.4
20260905090905 75 225 0.0 0.0 0.00 0.00 0.00 80 1012.4
20260905090405 75 225 0.0 0.0 0.00 0.00 0.00 79 1012.4
20260905085905 75 225 0.0 0.0 0.00 0.00 0.00 80 1012.3
20260905085406 75 225 0.0 0.0 0.00 0.00 0.00 80 1012.3
20260905084905 75 225 0.0 0.0 0.00 0.00 0.00 79 1012.3
20260905083405 76 225 0.0 0.0 0.00 0.00 0.00 79 1012.4
20260905082905 76 225 0.0 0.0 0.00 0.00 0.00 79 1012.4
20260905082405 76 225 0.0 0.0 0.00 0.00 0.00 79 1012.4
20260905081905 76 225 0.0 0.0 0.00 0.00 0.00 79 1012.5
20260905080905 76 225 0.0 0.0 0.00 0.00 0.00 78 1012.6
20260905080405 76 225 0.0 0.0 0.00 0.00 0.00 78 1012.5
20260905075905 76 225 0.0 0.0 0.00 0.00 0.00 78 1012.6
20260905075405 76 225 0.0 0.0 0.00 0.00 0.00 78 1012.6
20260905074905 77 225 0.0 0.0 0.00 0.00 0.00 78 1012.6
20260905074405 77 225 0.0 0.0 0.00 0.00 0.00 78 1012.5
20260905073905 77 225 0.0 0.0 0.00 0.00 0.00 78 1012.5
20260905073405 77 225 0.0 0.0 0.00 0.00 0.00 78 1012.5
20260905072906 77 225 0.0 0.0 0.00 0.00 0.00 78 1012.5
20260905072405 77 225 0.0 0.0 0.00 0.00 0.00 78 1012.6
20260905071905 78 225 0.0 0.0 0.00 0.00 0.00 77 1012.6
20260905070905 78 225 0.0 0.0 0.00 0.00 0.00 77 1012.6
20260905070405 78 225 0.0 0.0 0.00 0.00 0.00 77 1012.8
20260905065905 78 225 0.0 0.0 0.00 0.00 0.00 76 1012.7
20260905065405 78 225 0.0 0.0 0.00 0.00 0.00 76 1012.7
20260905064905 78 225 0.0 0.0 0.00 0.00 0.00 75 1012.6
20260905064405 79 225 0.0 0.0 0.00 0.00 0.00 75 1012.6
20260905063406 79 225 0.0 0.0 0.00 0.00 0.00 74 1012.7
20260905062905 79 225 0.0 0.0 0.00 0.00 0.00 74 1012.7
20260905061905 80 225 0.0 0.0 0.00 0.00 0.00 74 1012.7
20260905060906 80 225 0.0 0.0 0.00 0.00 0.00 73 1012.7
20260905060405 80 225 0.0 0.0 0.00 0.00 0.00 73 1012.7
20260905055905 80 225 0.0 0.0 0.00 0.00 0.00 73 1012.7
20260905055405 80 225 0.0 0.0 0.00 0.00 0.00 73 1012.8
20260905054905 80 225 0.0 0.0 0.00 0.00 0.00 73 1012.8
20260905054405 80 225 0.0 0.0 0.00 0.00 0.00 73 1012.9
20260905053905 80 225 0.0 0.0 0.00 0.00 0.00 73 1012.9
20260905052905 80 225 0.0 0.0 0.00 0.00 0.00 72 1013.0
20260905052405 81 225 0.0 0.0 0.00 0.00 0.00 72 1013.0
20260905051905 81 225 0.0 0.0 0.00 0.00 0.00 71 1013.0
20260905051404 81 225 0.0 0.0 0.00 0.00 0.00 71 1013.0
20260905050905 81 225 0.0 0.0 0.00 0.00 0.00 70 1013.0